Skip Page Navigation
NASA JPL Caltech
NASA Logo - Jet Propulsion Laboratory + View the NASA Portal
+ Center for Near-Earth Object Studies
JPL Home Earth Solar System Stars & Galaxies Technology
JPL Solar System Dynamics
BODIES ORBITS EPHEMERIDES TOOLS PHYSICAL DATA DISCOVERY FAQ SITE MAP
IMPORTANT: The SSD Announcement email list is now available. Major changes are coming in the near future, including possible hostname and/or URL changes. To be notified of such changes, subscribe to this email list.

Please visit this page for more details.


JPL Small-Body Database Browser
Search: [ help ]  
347962 (2003 RC5)
Classification: Main-belt Asteroid          SPK-ID: 2347962
Ephemeris | Orbit Diagram | Orbital Elements | Mission Design | Physical Parameters | Discovery Circumstances ]

[ show orbit diagram ]
Orbital Elements at Epoch 2459000.5 (2020-May-31.0) TDB
Reference: JPL 10 (heliocentric ecliptic J2000)
 Element Value Uncertainty (1-sigma)   Units 
e .08159868071183621 1.342e-07  
a 2.026987391150259 1.9211e-08 au
q 1.861587894212871 2.5683e-07 au
i 15.57961178252893 9.2498e-06 deg
node 325.5130725107906 2.5955e-05 deg
peri 93.43269573567795 9.5538e-05 deg
M 226.3561026981537 9.1904e-05 deg
tp 2459391.810614794155
(2021-Jun-26.31061479)
0.00027263 TDB
period 1054.083457381706
2.89
1.4985e-05
4.103e-08
d
yr
n .3415289344301286 4.8552e-09 deg/d
Q 2.192386888087647 2.0778e-08 au
  Orbit Determination Parameters
   # obs. used (total)      151  
   data-arc span      8458 days (23.16 yr)  
   first obs. used      1996-01-14  
   last obs. used      2019-03-12  
   planetary ephem.      DE431  
   SB-pert. ephem.      SB431-N16  
   condition code      0  
   norm. resid. RMS      .57532  
   source      ORB  
   producer      Otto Matic  
   solution date      2019-Jul-13 17:41:38  

Additional Information
 Earth MOID = .945431 au 
 Jupiter MOID = 3.00224 au 
 T_jup = 3.765 
[ show covariance matrix ]

Ephemeris | Orbit Diagram | Orbital Elements | Mission Design | Physical Parameters | Discovery Circumstances ]

Physical Parameter Table
Parameter Symbol Value Units Sigma Reference Notes
absolute magnitude H 17.6   n/a MPO471612  

347962 (2003 RC5)          Discovered 2003-Sep-03 by Essen at Essen
Reference: 20121228/Numbers.arcLast Updated: 2013-01-02
Ephemeris | Orbit Diagram | Orbital Elements | Mission Design | Physical Parameters | Discovery Circumstances ]
ABOUT SSD CREDITS/AWARDS PRIVACY/COPYRIGHT GLOSSARY LINKS
FirstGov 2020-Feb-19 07:48 UT
(server date/time)  
NASA Home Page
Site Manager:   Ryan S. Park
Webmaster  Alan B. Chamberlin